Flag for U.S.A. Weather past 2 weeks in Tuscaloosa, Alabama, U.S.A.

Now
57 °F

Mostly cloudy.


Feels Like: 56 °F
Forecast: 48 / 60 °F
Wind: 6 mph from East

Location: Tuscaloosa Municipal Airport

Current Time: Mar 1, 2015 at 5:40:07 PM

Latest Report: Mar 1, 2015 at 4:53 PM


Visibility: 10 mi

Pressure: 30.32 "Hg

Humidity: 81%

Dew point: 51 °F

Location of TuscaloosaLocation

Historic Weather in Tuscaloosa — Graph

°F

Tuscaloosa temperature yesterday

Maximum temperature yesterday: 65 °F (at 3:53 PM)
Minimum temperature yesterday: 34 °F (at 12:53 AM)
Average temperature yesterday: 50 °F

Past Weeks' High & Low Weather Summary

 TemperatureHumidityPressure
High66 °F (Feb 14, 3:53 PM)97% (Feb 16, 4:48 PM)30.54 "Hg (Feb 16, 4:48 PM)
Low19 °F (Feb 19, 5:53 AM)18% (Feb 18, 3:53 PM)29.70 "Hg (Feb 16, 2:53 PM)
Average40 °F62%30.20 "Hg
* Reported Feb 14 3:53 PM — Mar 1 3:53 PM, Tuscaloosa, Weather by CustomWeather, © 2015

Note: Actual official high and low records may vary slightly from our data, if they occured in-between our weather recording intervals... More about our weather records

Advertising

Tuscaloosa weather history for previous 24 hours

 ConditionsComfort  
Time TempWeatherWind HumidityBarometerVisibility
3:53 PM
Sun, Mar 1
58 °FMostly cloudy.6 mph78%30.34 "Hg10 mi
2:53 PM58 °FOvercast.3 mph75%30.36 "Hg10 mi
1:53 PM58 °FOvercast.3 mph75%30.35 "Hg10 mi
12:53 PM57 °FOvercast.3 mph74%30.35 "Hg10 mi
11:53 AM55 °FOvercast.7 mph77%30.38 "Hg10 mi
11:04 AM52 °FOvercast.8 mph83%30.41 "Hg9 mi
10:53 AM51 °FFog.8 mph86%30.42 "Hg6 mi
9:53 AM51 °FOvercast.8 mph83%30.42 "Hg10 mi
8:53 AM50 °FOvercast.6 mph83%30.42 "Hg8 mi
7:53 AM49 °FFog.9 mph86%30.40 "Hg5 mi
6:53 AM49 °FFog.5 mph90%30.40 "Hg4 mi
5:53 AM50 °FOvercast.8 mph86%30.41 "Hg7 mi
4:53 AM50 °FOvercast.9 mph83%30.38 "Hg10 mi
3:53 AM51 °FOvercast.12 mph80%30.36 "Hg9 mi
2:53 AM52 °FOvercast.8 mph77%30.36 "Hg10 mi
1:53 AM53 °FOvercast.9 mph74%30.38 "Hg10 mi
12:53 AM55 °FOvercast.9 mph69%30.39 "Hg10 mi
11:53 PM
Sat, Feb 28
56 °FPassing clouds.10 mph67%30.40 "Hg10 mi
11:00 PM57 °FPassing clouds.12 mph67%30.42 "Hg10 mi
9:53 PM59 °FOvercast.8 mph51%30.42 "Hg10 mi
8:53 PM59 °FMostly cloudy.7 mph44%30.41 "Hg10 mi
7:53 PM57 °FOvercast.3 mph42%30.40 "Hg10 mi
6:53 PM56 °FOvercast.3 mph44%30.38 "Hg10 mi
5:53 PM60 °FPassing clouds.5 mph32%30.37 "Hg10 mi
Weather by CustomWeather, © 2015

See weather overviewHow to use our weather pages